2022-03-22 00:03:00 r, 18.42m,0000000003Hz,0000127823c,0000000.277s, 013.5C,00002191
2022-03-22 00:13:01 r, 18.50m,0000000004Hz,0000137425c,0000000.298s, 013.5C,00002191
2022-03-22 00:22:59 r, 18.65m,0000000003Hz,0000158356c,0000000.344s, 013.5C,00002191
2022-03-22 00:33:01 r, 18.83m,0000000002Hz,0000186235c,0000000.404s, 013.5C,00002191
2022-03-22 00:43:00 r, 18.62m,0000000003Hz,0000153703c,0000000.334s, 013.5C,00002191
2022-03-22 00:52:59 r, 18.44m,0000000004Hz,0000130450c,0000000.283s, 013.5C,00002191
2022-03-22 01:03:00 r, 18.84m,0000000003Hz,0000188859c,0000000.410s, 013.5C,00002191
2022-03-22 01:13:02 r, 18.68m,0000000003Hz,0000163193c,0000000.354s, 013.5C,00002191
2022-03-22 01:22:59 r, 18.51m,0000000003Hz,0000140240c,0000000.304s, 013.5C,00002191
2022-03-22 01:32:59 r, 18.46m,0000000004Hz,0000132543c,0000000.288s, 013.5C,00002191
2022-03-22 01:43:00 r, 18.53m,0000000003Hz,0000141970c,0000000.308s, 013.8C,00002191
2022-03-22 01:52:59 r, 18.65m,0000000003Hz,0000158183c,0000000.343s, 013.8C,00002191
2022-03-22 02:02:59 r, 18.43m,0000000003Hz,0000129611c,0000000.281s, 013.8C,00002191
2022-03-22 02:13:01 r, 18.34m,0000000004Hz,0000118848c,0000000.258s, 013.8C,00002191
2022-03-22 02:22:59 r, 18.23m,0000000004Hz,0000107996c,0000000.234s, 013.8C,00002191
2022-03-22 02:32:59 r, 18.18m,0000000005Hz,0000103317c,0000000.224s, 013.8C,00002191
2022-03-22 02:43:02 r, 18.09m,0000000005Hz,0000094507c,0000000.205s, 013.8C,00002191
2022-03-22 02:52:59 r, 18.21m,0000000004Hz,0000105132c,0000000.228s, 013.8C,00002191
2022-03-22 03:02:59 r, 18.20m,0000000004Hz,0000104888c,0000000.228s, 013.8C,00002191
2022-03-22 03:13:02 r, 18.18m,0000000005Hz,0000102440c,0000000.222s, 013.8C,00002191
2022-03-22 03:22:59 r, 18.14m,0000000005Hz,0000099129c,0000000.215s, 013.8C,00002191
2022-03-22 03:32:59 r, 18.10m,0000000005Hz,0000095289c,0000000.207s, 013.8C,00002191
2022-03-22 03:43:00 r, 18.03m,0000000005Hz,0000089571c,0000000.194s, 013.8C,00002191
2022-03-22 03:52:59 r, 18.11m,0000000005Hz,0000096351c,0000000.209s, 013.8C,00002191
2022-03-22 04:02:59 r, 18.03m,0000000005Hz,0000089195c,0000000.194s, 013.8C,00002191
2022-03-22 04:13:00 r, 17.99m,0000000005Hz,0000086504c,0000000.188s, 013.8C,00002191
2022-03-22 04:22:59 r, 17.98m,0000000006Hz,0000085306c,0000000.185s, 013.8C,00002191
2022-03-22 04:32:59 r, 17.89m,0000000006Hz,0000078362c,0000000.170s, 013.8C,00002191
2022-03-22 04:43:01 r, 17.84m,0000000006Hz,0000075607c,0000000.164s, 013.8C,00002191
2022-03-22 04:53:00 r, 17.99m,0000000005Hz,0000086297c,0000000.187s, 014.1C,00002191
2022-03-22 05:02:59 r, 17.96m,0000000006Hz,0000084384c,0000000.183s, 014.1C,00002191
2022-03-22 05:13:02 r, 18.02m,0000000005Hz,0000088483c,0000000.192s, 014.1C,00002191
2022-03-22 05:23:00 r, 18.02m,0000000005Hz,0000089020c,0000000.193s, 014.1C,00002191
2022-03-22 05:32:59 r, 18.00m,0000000006Hz,0000087534c,0000000.190s, 014.1C,00002191
2022-03-22 05:43:02 r, 18.03m,0000000005Hz,0000089972c,0000000.195s, 014.5C,00002191
2022-03-22 05:53:00 r, 18.05m,0000000005Hz,0000090969c,0000000.197s, 014.5C,00002191
2022-03-22 06:02:59 r, 18.17m,0000000004Hz,0000101500c,0000000.220s, 014.5C,00002191
2022-03-22 06:13:00 r, 18.21m,0000000004Hz,0000105180c,0000000.228s, 014.5C,00002191
2022-03-22 06:23:01 r, 17.98m,0000000005Hz,0000085481c,0000000.186s, 014.5C,00002191
2022-03-22 06:32:59 r, 17.11m,0000000012Hz,0000038534c,0000000.084s, 014.1C,00002191
2022-03-22 06:43:01 r, 15.64m,0000000046Hz,0000009973c,0000000.022s, 014.1C,00002191
2022-03-22 06:53:00 r, 13.65m,0000000295Hz,0000000000c,0000000.000s, 014.1C,00002191
2022-03-22 07:02:59 r, 11.62m,0000001911Hz,0000000000c,0000000.000s, 013.8C,00002191
2022-03-22 07:13:00 r, 09.63m,0000011914Hz,0000000000c,0000000.000s, 013.8C,00002191
2022-03-22 07:23:02 r, 08.11m,0000048015Hz,0000000000c,0000000.000s, 013.8C,00002191
2022-03-22 07:32:59 r, 07.11m,0000120423Hz,0000000000c,0000000.000s, 014.1C,00002191
2022-03-22 07:43:02 r, 06.36m,0000240887Hz,0000000000c,0000000.000s, 013.8C,00002191
2022-03-22 07:53:00 r, 05.89m,0000371945Hz,0000000000c,0000000.000s, 013.8C,00002191
2022-03-22 08:02:59 r, 00.00m,0000475214Hz,0000000000c,0000000.000s, 013.8C,00002191
2022-03-22 08:13:02 r, 00.00m,0000472875Hz,0000000000c,0000000.000s, 013.5C,00002191
2022-03-22 08:23:00 r, 00.00m,0000598131Hz,0000000000c,0000000.000s, 013.5C,00002191
2022-03-22 08:32:59 r, 00.00m,0000598063Hz,0000000000c,0000000.000s, 013.5C,00002191
2022-03-22 08:43:00 r, 00.00m,0000598012Hz,0000000000c,0000000.000s, 013.5C,00002191
2022-03-22 08:53:00 r, 00.00m,0000598072Hz,0000000000c,0000000.000s, 013.5C,00002191
2022-03-22 09:02:59 r, 00.00m,0000598016Hz,0000000000c,0000000.000s, 013.8C,00002191
2022-03-22 09:13:01 r, 00.00m,0000597981Hz,0000000000c,0000000.000s, 014.1C,00002191
2022-03-22 09:23:00 r, 00.00m,0000597892Hz,0000000000c,0000000.000s, 014.5C,00002191
2022-03-22 09:32:59 r, 00.00m,0000597863Hz,0000000000c,0000000.000s, 015.7C,00002191
2022-03-22 09:43:02 r, 00.00m,0000597623Hz,0000000000c,0000000.000s, 018.0C,00002191
2022-03-22 09:53:00 r, 00.00m,0000597517Hz,0000000000c,0000000.000s, 019.6C,00002191
2022-03-22 10:02:59 r, 00.00m,0000597288Hz,0000000000c,0000000.000s, 020.9C,00002191
2022-03-22 10:13:02 r, 00.00m,0000597171Hz,0000000000c,0000000.000s, 022.2C,00002191
2022-03-22 10:23:00 r, 00.00m,0000597097Hz,0000000000c,0000000.000s, 022.5C,00002191
2022-03-22 10:32:59 r, 00.00m,0000596969Hz,0000000000c,0000000.000s, 022.8C,00002191
2022-03-22 10:43:00 r, 00.00m,0000596916Hz,0000000000c,0000000.000s, 023.5C,00002191
2022-03-22 10:53:01 r, 00.00m,0000596879Hz,0000000000c,0000000.000s, 023.8C,00002191
2022-03-22 11:02:59 r, 00.00m,0000596944Hz,0000000000c,0000000.000s, 024.1C,00002191
2022-03-22 11:13:01 r, 00.00m,0000596852Hz,0000000000c,0000000.000s, 024.4C,00002191
2022-03-22 11:23:00 r, 00.00m,0000596630Hz,0000000000c,0000000.000s, 025.7C,00002191
2022-03-22 11:32:59 r, 00.00m,0000596514Hz,0000000000c,0000000.000s, 026.7C,00002191
2022-03-22 11:43:00 r, 00.00m,0000596507Hz,0000000000c,0000000.000s, 027.3C,00002191
2022-03-22 11:53:02 r, 00.00m,0000596296Hz,0000000000c,0000000.000s, 028.3C,00002191
2022-03-22 12:02:59 r, 00.00m,0000596254Hz,0000000000c,0000000.000s, 028.3C,00002191
2022-03-22 12:12:59 r, 00.00m,0000596587Hz,0000000000c,0000000.000s, 026.7C,00002191
2022-03-22 12:23:00 r, 00.00m,0000596552Hz,0000000000c,0000000.000s, 026.1C,00002191
2022-03-22 12:32:59 r, 00.00m,0000596414Hz,0000000000c,0000000.000s, 027.0C,00002191
2022-03-22 12:43:02 r, 00.00m,0000596419Hz,0000000000c,0000000.000s, 027.0C,00002191
2022-03-22 12:53:00 r, 00.00m,0000596551Hz,0000000000c,0000000.000s, 026.4C,00002191
2022-03-22 13:02:59 r, 00.00m,0000596521Hz,0000000000c,0000000.000s, 026.7C,00002191
2022-03-22 13:13:00 r, 00.00m,0000596316Hz,0000000000c,0000000.000s, 028.0C,00002191
2022-03-22 13:23:01 r, 00.00m,0000596180Hz,0000000000c,0000000.000s, 029.0C,00002191
2022-03-22 13:32:59 r, 00.00m,0000595793Hz,0000000000c,0000000.000s, 030.6C,00002191
2022-03-22 13:42:59 r, 00.00m,0000595976Hz,0000000000c,0000000.000s, 030.2C,00002191
2022-03-22 13:53:02 r, 00.00m,0000595990Hz,0000000000c,0000000.000s, 029.6C,00002191
2022-03-22 14:02:59 r, 00.00m,0000595956Hz,0000000000c,0000000.000s, 029.3C,00002191
2022-03-22 14:12:59 r, 00.00m,0000596024Hz,0000000000c,0000000.000s, 028.6C,00002191
2022-03-22 14:23:00 r, 00.00m,0000596154Hz,0000000000c,0000000.000s, 028.0C,00002191
2022-03-22 14:32:59 r, 00.00m,0000596267Hz,0000000000c,0000000.000s, 027.3C,00002191
2022-03-22 14:43:02 r, 00.00m,0000596352Hz,0000000000c,0000000.000s, 027.0C,00002191
2022-03-22 14:53:00 r, 00.00m,0000596464Hz,0000000000c,0000000.000s, 026.1C,00002191
2022-03-22 15:02:59 r, 00.00m,0000596564Hz,0000000000c,0000000.000s, 025.4C,00002191
2022-03-22 15:13:00 r, 00.00m,0000596657Hz,0000000000c,0000000.000s, 024.8C,00002191
2022-03-22 15:23:01 r, 00.00m,0000596607Hz,0000000000c,0000000.000s, 024.1C,00002191
2022-03-22 15:32:59 r, 00.00m,0000596844Hz,0000000000c,0000000.000s, 023.5C,00002191
2022-03-22 15:42:59 r, 00.00m,0000596875Hz,0000000000c,0000000.000s, 022.5C,00002191
2022-03-22 15:53:02 r, 00.00m,0000597062Hz,0000000000c,0000000.000s, 021.9C,00002191
2022-03-22 16:02:59 r, 00.00m,0000597040Hz,0000000000c,0000000.000s, 021.5C,00002191
2022-03-22 16:12:59 r, 00.00m,0000597075Hz,0000000000c,0000000.000s, 021.9C,00002191
2022-03-22 16:23:02 r, 00.00m,0000596996Hz,0000000000c,0000000.000s, 022.2C,00002191
2022-03-22 16:32:59 r, 00.00m,0000597021Hz,0000000000c,0000000.000s, 022.2C,00002191
2022-03-22 16:42:59 r, 00.00m,0000597017Hz,0000000000c,0000000.000s, 021.2C,00002191
2022-03-22 16:53:00 r, 00.00m,0000597078Hz,0000000000c,0000000.000s, 020.9C,00002191
2022-03-22 17:02:59 r, 00.00m,0000597171Hz,0000000000c,0000000.000s, 020.3C,00002191
2022-03-22 17:13:02 r, 00.00m,0000597293Hz,0000000000c,0000000.000s, 019.9C,00002191
2022-03-22 17:23:00 r, 00.00m,0000597271Hz,0000000000c,0000000.000s, 019.3C,00002191
2022-03-22 17:32:59 r, 00.00m,0000597275Hz,0000000000c,0000000.000s, 019.3C,00002191
2022-03-22 17:43:00 r, 00.00m,0000597333Hz,0000000000c,0000000.000s, 019.3C,00002191
2022-03-22 17:53:01 r, 00.00m,0000597278Hz,0000000000c,0000000.000s, 019.9C,00002191
2022-03-22 18:02:59 r, 00.00m,0000597255Hz,0000000000c,0000000.000s, 020.3C,00002191
2022-03-22 18:13:01 r, 00.00m,0000597252Hz,0000000000c,0000000.000s, 019.9C,00002191
2022-03-22 18:23:00 r, 00.00m,0000597314Hz,0000000000c,0000000.000s, 019.3C,00002191
2022-03-22 18:32:59 r, 00.00m,0000597512Hz,0000000000c,0000000.000s, 018.3C,00002191
2022-03-22 18:42:59 r, 00.00m,0000597388Hz,0000000000c,0000000.000s, 018.3C,00002191
2022-03-22 18:53:02 r, 00.00m,0000597350Hz,0000000000c,0000000.000s, 018.6C,00002191
2022-03-22 19:02:59 r, 00.00m,0000487648Hz,0000000000c,0000000.000s, 018.3C,00002191
2022-03-22 19:12:59 r, 00.00m,0000467340Hz,0000000000c,0000000.000s, 017.7C,00002191
2022-03-22 19:23:00 r, 00.00m,0000426672Hz,0000000000c,0000000.000s, 016.7C,00002191
2022-03-22 19:32:59 r, 06.58m,0000198066Hz,0000000000c,0000000.000s, 016.1C,00002191
2022-03-22 19:42:59 r, 07.49m,0000085301Hz,0000000000c,0000000.000s, 015.4C,00002191
2022-03-22 19:53:00 r, 08.63m,0000029904Hz,0000000000c,0000000.000s, 015.1C,00002191
2022-03-22 20:02:59 r, 10.38m,0000005975Hz,0000000000c,0000000.000s, 015.1C,00002191
2022-03-22 20:12:59 r, 12.39m,0000000935Hz,0000000000c,0000000.000s, 014.8C,00002191
2022-03-22 20:23:02 r, 14.39m,0000000148Hz,0000000000c,0000000.000s, 014.8C,00002191
2022-03-22 20:32:59 r, 16.40m,0000000024Hz,0000019972c,0000000.043s, 014.8C,00002191
2022-03-22 20:42:59 r, 17.78m,0000000007Hz,0000071081c,0000000.154s, 015.1C,00002191
2022-03-22 20:53:02 r, 18.96m,0000000002Hz,0000211218c,0000000.458s, 015.1C,00002191
2022-03-22 21:02:59 r, 20.18m,0000000001Hz,0000646673c,0000001.403s, 015.1C,00002191
2022-03-22 21:12:59 r, 20.03m,0000000001Hz,0000561729c,0000001.219s, 014.5C,00002191
2022-03-22 21:23:00 r, 19.32m,0000000002Hz,0000291887c,0000000.633s, 014.5C,00002191
2022-03-22 21:33:01 r, 20.00m,0000000001Hz,0000541393c,0000001.175s, 014.5C,00002191
2022-03-22 21:42:59 r, 19.31m,0000000002Hz,0000289240c,0000000.628s, 014.5C,00002191
2022-03-22 21:53:01 r, 19.49m,0000000002Hz,0000341518c,0000000.741s, 014.5C,00002191
2022-03-22 22:03:00 r, 19.61m,0000000002Hz,0000380025c,0000000.825s, 014.8C,00002191
2022-03-22 22:12:59 r, 19.47m,0000000001Hz,0000335509c,0000000.728s, 014.8C,00002191
2022-03-22 22:23:00 r, 19.29m,0000000002Hz,0000284107c,0000000.617s, 014.8C,00002191
2022-03-22 22:33:02 r, 20.30m,0000000000Hz,0000714979c,0000001.552s, 014.8C,00002191
2022-03-22 22:42:59 r, 21.13m,0000000000Hz,0001516446c,0000003.291s, 014.5C,00002191
2022-03-22 22:53:02 r, 20.62m,0000000000Hz,0000957624c,0000002.078s, 014.1C,00002191
2022-03-22 23:03:00 r, 20.12m,0000000001Hz,0000607375c,0000001.318s, 013.8C,00002191
2022-03-22 23:12:59 r, 19.78m,0000000001Hz,0000446197c,0000000.968s, 013.8C,00002191
2022-03-22 23:23:02 r, 19.21m,0000000001Hz,0000262858c,0000000.570s, 013.8C,00002191
2022-03-22 23:33:00 r, 19.54m,0000000001Hz,0000356960c,0000000.775s, 014.1C,00002191
2022-03-22 23:43:00 r, 19.61m,0000000002Hz,0000380091c,0000000.825s, 014.5C,00002191
2022-03-22 23:53:00 r, 19.64m,0000000001Hz,0000390528c,0000000.848s, 014.5C,00002191
